User: anonymous   Login
Location: Ladysmith
(45.4630°N, 91.1040°W)
Time: 07:16:03
(UTC-05:00)
Language:

SO-67 - Orbit

View from above orbital plane
View from above orbital plane
View from above satellite
View from above satellite

Ground track
Ground track

The orbit data is extracted from the following two-line orbital elements,

1 35870U 09049F   16208.14153428  .00005569  00000-0  10364-3 0  9992
2 35870  97.1173 222.4795 0001990 113.6089 287.3815 15.49266253382674
Epoch (UTC): 26 July 2016 03:23:48
Eccentricity: 0.0001990
inclination: 97.1173°
perigee height: 417 km
apogee height: 420 km
right ascension of ascending node: 222.4795°
argument of perigee: 113.6089°
revolutions per day: 15.49266253
mean anomaly at epoch: 287.3815°
orbit number at epoch: 38267

The dashed part of the orbit path shows where the satellite is in the earth's shadow,  

DLR